Preview of NWS' New Version of Forecast
This preview is not operational and should not be used for support decisions.

Regional Weather Roundup (RWR)

Issued by Gray - Portland, ME (GYX)

                            
303 
ASUS41 KGYX 182010
RWRGYX
WEATHER ROUNDUP FOR MAINE AND NEW HAMPSHIRE
NATIONAL WEATHER SERVICE GRAY ME
300 PM EST SUN FEB 18 2018

MEZ002-005-006-010-012-015-018-020-021-024-026-027-029-182100-
MAINE
  
CITY           SKY/WX    TMP DP  RH WIND       PRES   REMARKS
PORTLAND       FAIR      40  20  44 NW14      30.24R                  
SANFORD        FAIR      39  21  48 W14G22    30.24R                  
BAR HARBOR     FAIR      36  24  62 NW10      30.18R                  
WISCASSET      FAIR      40  21  46 VRB6      30.23R                  
ROCKLAND       FAIR      38  23  55 NW5       30.19R                  
FRYEBURG       FAIR      39  20  46 NW10      30.22R                  
LEWISTONAUBURN FAIR      38  19  46 NW10      30.23R                  
AUGUSTA        FAIR      38  18  44 NW10G17   30.20R                  
WATERVILLE     FAIR      37  19  48 NW13      30.15R                  
BANGOR         PTSUNNY   34  21  59 NW14      30.18R                  
GREENVILLE       N/A     28  17  63 NW17G24   30.09R WCI  16          
MILLINOCKET    PTSUNNY   35  21  56 NW12G18   30.15R                  
HOULTON        PTSUNNY   34  19  54 NW7       30.09R                  
PRESQUE ISLE   PTSUNNY   33  16  49 W13       30.11R                  
FRENCHVILLE    CLOUDY    31  13  47 NW10      30.06R                  
CARIBOU        CLOUDY    33  16  49 VRB5      30.08R                  
$$

NHZ002-005-008-009-011-012-014-182100-
NEW HAMPSHIRE
  
CITY           SKY/WX    TMP DP  RH WIND       PRES   REMARKS
PORTSMOUTH     MOSUNNY   40  19  43 W17G24    30.24R                  
ROCHESTER      FAIR      39  21  48 W13G21    30.24R                  
NASHUA         FAIR      42  22  44 NW10G18   30.28R                  
MANCHESTER     FAIR      41  22  46 N9        30.26R                  
CONCORD        PTSUNNY   40  22  48 NW15      30.26R                  
LACONIA        PTSUNNY   37  20  50 W13       30.25R                  
PLYMOUTH       CLOUDY    37  20  50 NW15G22   30.26R                  
BERLIN         CLOUDY    33  19  56 NW10G20   30.19R                  
WHITEFIELD     CLOUDY    32  21  64 W5        30.22R                  
JAFFREY        FAIR      38  21  50 VRB5G18   30.25R                  
KEENE          FAIR      41  20  43 NW10G16   30.30R                  
LEBANON        PTSUNNY   37  21  52 NW10      30.26R                  
MT WASHINGTON  SNOWSHWR   9   9 100 W47G53      N/A  VSB 0   WCI -18  
$$

VTZ005-007-008-182100-
VERMONT
  
CITY           SKY/WX    TMP DP  RH WIND       PRES   REMARKS
ST JOHNSBURY     N/A     34  23  64 MISG      30.23R                  
MONTPELIER     CLOUDY    31  22  69 NW7       30.28R                  
BURLINGTON     CLOUDY    36  22  56 SW6       30.28R                  
$$

MAZ007-012-024-CTZ003-RIZ002-NYZ038-NYZ072-182100-
SOUTHERN NEW ENGLAND AND NY
  
CITY           SKY/WX    TMP DP  RH WIND       PRES   REMARKS
BOSTON         FAIR      42  23  46 W9        30.29R                  
WORCESTER      FAIR      39  21  48 W10       30.26R                  
NANTUCKET      FAIR      42  29  59 N14       30.30R                  
HARTFORD       FAIR      39  23  52 NW21G28   30.33R                  
ALBANY         PTSUNNY   38  25  59 W14       30.35R                  
NEW YORK CITY  FAIR      44  23  43 NW13      30.36R                  
$$

ANZ081-ANZ082-ANZ150-NHZ014-MEZ023>029-182100-
COASTAL MARINE OBSERVATIONS
  
STATION/POSITION TIME  TEMP    WIND        PRES    WAVE
                       AIR SEA DIR/SP/G            HT/PER
                 (UTC) (F)     (DEG/KT/KT) (MB)    (FT/S)
MOUNT DESERT ROC 2000   36     320/ 16/ 18 1022.1R
MATINICUS ROCK   2000   38     310/ 12/ 14 1022.5R
ISLE OF SHOALS   2000   40     290/ 17/ 19 1024.1R
JEFFREYS LEDGE   1936      42                N/A     5/ 5
GEORGES BANK BUO 1850   40 50              1008.4   10/ 7
$$

.............KEY..............
   WCI - WIND CHILL
   TC  - TEMPERATURE IN CELSIUS
   VSB - VISIBILITY IN MILES
   HX  - HEAT INDEX
   FAIR- INDICATES FEW OR NO CLOUDS BELOW 12,000 FT, WITH NO 
         SIGNIFICANT WEATHER AND/OR OBSTRUCTIONS TO VISIBILITY.